Flag for Australia Weather past 2 weeks in Adelaide, South Australia, Australia

Now
70 °F

Sunny.


Feels Like: 70 °F
Forecast: 55 / 67 °F
Wind: 8 mph from Southwest

Location: Adelaide Airport

Current Time: Apr 1, 2015 at 6:34:59 PM

Latest Report: Apr 1, 2015 at 5:30 PM


Visibility: 10 mi

Pressure: 29.98 "Hg

Humidity: 73%

Dew point: 61 °F

Location of AdelaideLocation

Historic Weather in Adelaide — Graph

°F

Adelaide temperature yesterday

Maximum temperature yesterday: 84 °F (at 1:00 PM)
Minimum temperature yesterday: 54 °F (at 5:30 AM)
Average temperature yesterday: 69 °F

Past Weeks' High & Low Weather Summary

 TemperatureHumidityPressure
High86 °F (Mar 22, 4:30 PM)94% (Mar 25, 6:30 PM)30.39 "Hg (Mar 25, 6:30 PM)
Low48 °F (Mar 28, 5:00 AM)10% (Mar 22, 11:30 PM)29.56 "Hg (Mar 19, 4:00 AM)
Average66 °F55%30.08 "Hg
* Reported Mar 17 5:30 PM — Apr 1 5:30 PM, Adelaide, Weather by CustomWeather, © 2015

Note: Actual official high and low records may vary slightly from our data, if they occured in-between our weather recording intervals... More about our weather records

Advertising

Adelaide weather history for previous 24 hours

 ConditionsComfort  
Time TempWeatherWind HumidityBarometerVisibility
5:30 PM
Wed, Apr 1
70 °FSunny.8 mph73%29.98 "Hg10 mi
5:00 PM70 °FSunny.9 mph78%29.98 "Hg10 mi
4:30 PM68 °FSunny.14 mph83%29.98 "Hg10 mi
4:00 PM72 °FLight rain. Partly sunny.17 mph69%29.95 "HgN/A
3:30 PM75 °FSunny.15 mph61%29.95 "Hg10 mi
3:00 PM79 °FSunny.14 mph45%29.95 "Hg10 mi
2:30 PM81 °FSunny.14 mph34%29.92 "Hg10 mi
1:30 PM81 °FSunny.20 mph24%29.95 "Hg10 mi
1:00 PM81 °FSunny.20 mph24%29.95 "Hg10 mi
12:30 PM82 °FSunny.20 mph16%29.95 "Hg10 mi
12:00 PM84 °FSunny.17 mph15%29.95 "Hg10 mi
11:30 AM82 °FSunny.18 mph16%29.95 "Hg10 mi
11:00 AM81 °FSunny.17 mph18%29.98 "Hg10 mi
10:30 AM81 °FSunny.17 mph17%29.98 "Hg10 mi
10:00 AM77 °FSunny.14 mph21%29.98 "Hg10 mi
9:30 AM75 °FSunny.9 mph25%29.98 "Hg10 mi
9:00 AM73 °FSunny.9 mph27%29.98 "Hg10 mi
8:30 AM72 °FSunny.9 mph29%29.98 "Hg10 mi
8:00 AM72 °FSunny.14 mph27%29.98 "Hg10 mi
7:30 AM70 °FClear.12 mph31%29.98 "Hg10 mi
7:00 AM70 °FClear.9 mph33%29.98 "Hg10 mi
6:30 AM68 °FClear.9 mph38%29.98 "Hg10 mi
6:00 AM66 °FClear.7 mph43%29.98 "Hg10 mi
5:30 AM66 °FClear.8 mph46%29.98 "Hg10 mi
5:00 AM68 °FClear.6 mph40%29.98 "Hg10 mi
4:30 AM66 °FClear.6 mph46%29.98 "Hg10 mi
4:00 AM66 °FClear.8 mph46%29.98 "Hg10 mi
3:30 AM66 °FClear.8 mph46%30.01 "Hg10 mi
3:00 AM66 °FClear.7 mph46%30.01 "Hg10 mi
2:30 AM64 °FClear.8 mph49%30.04 "Hg10 mi
2:00 AM64 °FClear.8 mph49%30.04 "Hg10 mi
1:30 AM68 °FClear.8 mph40%30.07 "Hg10 mi
1:00 AM70 °FClear.8 mph40%30.07 "Hg10 mi
12:30 AM66 °FClear.6 mph52%30.07 "Hg10 mi
12:00 AM64 °FClear.5 mph56%30.07 "Hg10 mi
11:30 PM
Tue, Mar 31
64 °FClear.6 mph56%30.07 "Hg10 mi
11:00 PM64 °FClear.1 mph56%30.09 "Hg10 mi
10:30 PM68 °FClear.1 mph49%30.09 "Hg10 mi
10:00 PM70 °FClear.3 mph46%30.07 "Hg10 mi
9:30 PM70 °FClear.5 mph43%30.07 "Hg10 mi
9:00 PM72 °FClear.8 mph41%30.07 "Hg10 mi
8:30 PM72 °FClear.6 mph44%30.07 "Hg10 mi
8:00 PM75 °FClear.8 mph34%30.07 "Hg10 mi
7:30 PM77 °FSunny.7 mph32%30.07 "Hg10 mi
7:00 PM77 °FSunny.6 mph34%30.09 "Hg10 mi
6:30 PM79 °FSunny.5 mph32%30.09 "Hg10 mi
6:00 PM81 °FSunny.6 mph28%30.09 "Hg10 mi
Weather by CustomWeather, © 2015

See weather overviewHow to use our weather pages